Weather History for Caslav, Czech Republic

Change the Weather History Date:

Friday, March 15, 2013

  Actual Average Record
Temperature  
Mean Temperature 24 °F -  
Max Temperature 30 °F - - ()
Min Temperature 19 °F - - ()
Degree Days  
Heating Degree Days 40    
Moisture  
Dew Point 17 °F    
Average Humidity 74    
Maximum Humidity 86    
Minimum Humidity 55    
Precipitation  
Precipitation 0.00 in - - ()
Sea Level Pressure  
Sea Level Pressure 29.87 in    
Wind  
Wind Speed 9 mph ()    
Max Wind Speed 18 mph    
Max Gust Speed 29 mph    
Visibility 6.2 miles    
Events Snow    
T = Trace of Precipitation, MM = Missing Value Source: Averaged Metar Reports

Daily Weather History Graph

Daily Weather History Graph

Search for Another Location

Airport:

Trip Planner

Search our weather history database for the weather conditions in past years. The results will help you decide how hot, cold, wet, or windy it might be!

Date:

Astronomy

Mar. 15, 2013 Rise Set
Actual Time 6:12 AM CET 6:03 PM CET
Civil Twilight 5:39 AM CET 6:35 PM CET
Nautical Twilight 5:02 AM CET 7:13 PM CET
Astronomical Twilight 4:23 AM CET 7:52 PM CET
Moon 7:27 AM CET (3/15) 10:28 PM CET (3/15)
Length of Visible Light 12h 55m
Length of Day
11h 51m
Waxing Crescent, 14% of the Moon is Illuminated
Mar 15
Waxing Crescent
Mar 19
First Quarter
Mar 27
Full
Apr 3
Last Quarter
Apr 10
New

Hourly Weather History & Observations

Time (CET) Temp. Windchill Dew Point Humidity Pressure Visibility Wind Dir Wind Speed Gust Speed Precip Events Conditions
12:00 AM 23.0 °F 14.7 °F 17.6 °F 80% 29.74 in - NW 6.9 mph - N/A   Clear
1:00 AM 21.2 °F 12.6 °F 17.6 °F 86% 29.77 in - WNW 6.9 mph - N/A   Clear
2:00 AM 21.2 °F 10.9 °F 17.6 °F 86% 29.77 in - WNW 9.2 mph - N/A   Clear
3:00 AM 19.4 °F 9.5 °F 15.8 °F 86% 29.77 in - WNW 8.1 mph - N/A   Clear
4:00 AM 19.4 °F 7.9 °F 15.8 °F 86% 29.77 in - WNW 10.4 mph - N/A   Clear
5:00 AM 21.2 °F 11.7 °F 15.8 °F 80% 29.77 in - WNW 8.1 mph - N/A   Clear
6:00 AM 21.2 °F 8.9 °F 17.6 °F 86% 29.77 in 6.2 mi NW 12.7 mph - N/A   Mostly Cloudy
7:00 AM 21.2 °F 9.5 °F 17.6 °F 86% 29.80 in - NW 11.5 mph - N/A   Clear
9:00 AM 26.6 °F 14.7 °F 17.6 °F 69% 29.83 in - WNW 15.0 mph - N/A   Clear
10:00 AM 28.4 °F 17.0 °F 17.6 °F 64% 29.86 in - WNW 15.0 mph - N/A   Clear
11:00 AM 28.4 °F 15.8 °F 15.8 °F 59% 29.86 in 6.2 mi NNW 18.4 mph 28.8 mph N/A   Mostly Cloudy
12:00 PM 30.2 °F 18.5 °F 15.8 °F 55% 29.86 in 6.2 mi NNW 17.3 mph - N/A   Mostly Cloudy
1:00 PM 28.4 °F 15.8 °F 15.8 °F 59% 29.89 in 6.2 mi NNW 18.4 mph 28.8 mph N/A Snow Light Snow Showers
2:00 PM 30.2 °F 19.3 °F 15.8 °F 55% 29.89 in 6.2 mi NNW 15.0 mph - N/A   Overcast
4:00 PM 30.2 °F 20.2 °F 17.6 °F 60% 29.92 in 6.2 mi NNW 12.7 mph - N/A   Mostly Cloudy
5:00 PM 30.2 °F 20.2 °F 15.8 °F 55% 29.92 in - NW 12.7 mph - N/A   Clear
6:00 PM 28.4 °F 21.2 °F 17.6 °F 64% 29.95 in - NW 6.9 mph - N/A   Clear
7:00 PM 26.6 °F 17.5 °F 19.4 °F 74% 29.98 in 6.2 mi NW 9.2 mph - N/A   Scattered Clouds
8:00 PM 24.8 °F 16.1 °F 19.4 °F 80% 30.01 in 6.2 mi WNW 8.1 mph - N/A   Partly Cloudy
9:00 PM 23.0 °F 14.7 °F 19.4 °F 86% 30.01 in - WNW 6.9 mph - N/A   Clear
10:00 PM 23.0 °F 15.8 °F 19.4 °F 86% 30.01 in - NW 5.8 mph - N/A   Clear
11:00 PM 23.0 °F 15.8 °F 19.4 °F 86% 30.04 in - NW 5.8 mph - N/A   Clear